Location: Cointrin
(46.2167°N, 6.1167°E)
Time: 08:06:32
(UTC+00:00)

YAOGAN 1 - Pass Details

Date: 08 February 2023
Orbit: 616 x 618 km, 97.8° (Epoch: 26 March)

Event Time Altitude Azimuth Distance (km) Brightness Sun altitude
Rises 17:51:35 0° 150° (SSE) 2,881 5.8 -11.0°
Reaches altitude 10° 17:53:48 10° 145° (SE) 1,980 4.9 -11.4°
Maximum altitude 17:57:56 47° 71° (ENE) 820 2.8 -12.1°
Drops below altitude 10° 18:02:07 10° 358° (N) 1,996 5.1 -12.8°
Sets 18:04:22 0° 353° (N) 2,907 6.0 -13.2°
